| time (UTC) | temp F | wind direction | speed knots | gust knots | rain 1hr in | rain 24hr in | rain mn in | humidity % | barometer mb |
| 20260903074032 | 80 | 123 | 0.0 | 1.7 | 0.00 | 0.00 | 0.00 | 79 | 1020.8 |
| 20260903073027 | 80 | 95 | 0.0 | 1.7 | 0.00 | 0.00 | 0.00 | 79 | 1020.8 |
| 20260903072023 | 80 | 58 | 0.0 | 0.9 | 0.00 | 0.00 | 0.00 | 79 | 1020.7 |
| 20260903071019 | 79 | 53 | 0.0 | 0.9 | 0.00 | 0.00 | 0.00 | 81 | 1020.8 |
| 20260903070034 | 78 | 0.0 | 0.0 | 0.00 | 0.00 | 0.00 | 85 | 1020.7 | |
| 20260903065029 | 77 | 0.0 | 0.0 | 0.00 | 0.00 | 0.00 | 87 | 1020.6 | |
| 20260903064024 | 76 | 0.0 | 0.0 | 0.00 | 0.00 | 0.00 | 89 | 1020.5 | |
| 20260903063020 | 76 | 0.0 | 0.0 | 0.00 | 0.00 | 0.00 | 90 | 1020.4 | |
| 20260903062115 | 75 | 0.0 | 0.0 | 0.00 | 0.00 | 0.00 | 90 | 1020.2 | |
| 20260903061030 | 75 | 0.0 | 0.0 | 0.00 | 0.00 | 0.00 | 91 | 1020.3 | |
| 20260903060025 | 75 | 0.0 | 0.0 | 0.00 | 0.00 | 0.00 | 91 | 1020.0 | |
| 20260903055020 | 75 | 358 | 0.0 | 0.9 | 0.00 | 0.00 | 0.00 | 91 | 1019.8 |
| 20260903054016 | 75 | 4 | 0.0 | 0.9 | 0.00 | 0.00 | 0.00 | 91 | 1019.8 |
| 20260903053031 | 74 | 352 | 0.0 | 1.7 | 0.00 | 0.00 | 0.00 | 92 | 1019.7 |
| 20260903052027 | 75 | 351 | 0.0 | 0.9 | 0.00 | 0.00 | 0.00 | 92 | 1019.7 |
| 20260903051042 | 75 | 351 | 0.0 | 0.9 | 0.00 | 0.00 | 0.00 | 92 | 1019.7 |
| 20260903050017 | 75 | 0.0 | 0.0 | 0.00 | 0.00 | 0.00 | 91 | 1019.7 | |
| 20260903045033 | 75 | 0.0 | 0.0 | 0.00 | 0.00 | 0.00 | 91 | 1019.6 | |
| 20260903044028 | 75 | 0.0 | 0.0 | 0.00 | 0.00 | 0.00 | 91 | 1019.5 | |
| 20260903043023 | 75 | 0.0 | 0.0 | 0.00 | 0.00 | 0.00 | 91 | 1019.3 | |
| 20260903042018 | 75 | 0.0 | 0.0 | 0.00 | 0.00 | 0.00 | 91 | 1019.3 | |
| 20260903041034 | 75 | 0.0 | 0.0 | 0.00 | 0.00 | 0.00 | 91 | 1019.2 | |
| 20260903040050 | 75 | 0.0 | 0.0 | 0.00 | 0.00 | 0.00 | 91 | 1019.3 | |
| 20260903035024 | 75 | 0.0 | 0.0 | 0.00 | 0.00 | 0.00 | 90 | 1019.2 | |
| 20260903034020 | 76 | 0.0 | 0.0 | 0.00 | 0.00 | 0.00 | 90 | 1019.3 | |
| 20260903033015 | 76 | 0.0 | 0.0 | 0.00 | 0.00 | 0.00 | 90 | 1019.3 | |
| 20260903032050 | 76 | 0.0 | 0.0 | 0.00 | 0.00 | 0.00 | 89 | 1019.3 | |
| 20260903031026 | 76 | 0.0 | 0.0 | 0.00 | 0.00 | 0.00 | 89 | 1019.3 | |
| 20260903030021 | 76 | 348 | 0.0 | 0.9 | 0.00 | 0.00 | 0.00 | 89 | 1019.3 |
| 20260903025056 | 76 | 0.0 | 0.0 | 0.00 | 0.00 | 0.00 | 89 | 1019.4 | |
| 20260903024051 | 76 | 0.0 | 0.0 | 0.00 | 0.00 | 0.00 | 89 | 1019.3 | |
| 20260903023026 | 76 | 0.0 | 0.0 | 0.00 | 0.00 | 0.00 | 88 | 1019.4 | |
| 20260903022022 | 77 | 0.0 | 0.0 | 0.00 | 0.00 | 0.00 | 88 | 1019.4 | |
| 20260903021017 | 77 | 0.0 | 0.0 | 0.00 | 0.00 | 0.00 | 88 | 1019.5 | |
| 20260903020033 | 77 | 282 | 0.0 | 1.7 | 0.00 | 0.00 | 0.00 | 88 | 1019.4 |
| 20260903015028 | 77 | 320 | 0.0 | 0.9 | 0.00 | 0.00 | 0.00 | 88 | 1019.3 |
| 20260903014024 | 77 | 0.0 | 0.0 | 0.00 | 0.00 | 0.00 | 88 | 1019.4 | |
| 20260903013018 | 77 | 311 | 0.0 | 0.9 | 0.00 | 0.00 | 0.00 | 88 | 1019.4 |
| 20260903012033 | 77 | 288 | 0.0 | 1.7 | 0.00 | 0.00 | 0.00 | 88 | 1019.4 |
| 20260903011109 | 77 | 290 | 0.0 | 0.9 | 0.00 | 0.00 | 0.00 | 88 | 1019.4 |
| 20260903010025 | 77 | 290 | 0.0 | 0.9 | 0.00 | 0.00 | 0.00 | 88 | 1019.4 |
| 20260903005020 | 77 | 290 | 0.0 | 0.9 | 0.00 | 0.00 | 0.00 | 88 | 1019.5 |
| 20260903004015 | 78 | 290 | 0.0 | 0.9 | 0.00 | 0.00 | 0.00 | 88 | 1019.5 |
| 20260903003031 | 78 | 304 | 0.0 | 0.9 | 0.00 | 0.00 | 0.00 | 88 | 1019.6 |
| 20260903002026 | 78 | 296 | 0.0 | 0.9 | 0.00 | 0.00 | 0.00 | 88 | 1019.8 |
| 20260903001021 | 78 | 284 | 0.0 | 0.9 | 0.00 | 0.00 | 0.00 | 88 | 1019.9 |
| 20260903000017 | 78 | 308 | 0.0 | 0.9 | 0.00 | 0.00 | 0.00 | 88 | 1019.8 |
| 20260902235032 | 78 | 319 | 0.0 | 1.7 | 0.00 | 0.00 | 0.00 | 88 | 1019.8 |
| 20260902234028 | 78 | 266 | 0.9 | 1.7 | 0.00 | 0.00 | 0.00 | 88 | 1019.7 |
| 20260902233023 | 78 | 302 | 0.0 | 1.7 | 0.00 | 0.00 | 0.00 | 88 | 1019.7 |
| 20260902232039 | 78 | 44 | 0.0 | 0.9 | 0.00 | 0.00 | 0.00 | 88 | 1019.9 |
| 20260902231034 | 78 | 62 | 0.0 | 0.9 | 0.00 | 0.00 | 0.00 | 89 | 1019.8 |
| 20260902230029 | 78 | 0.0 | 0.0 | 0.00 | 0.00 | 0.00 | 89 | 1019.8 | |
| 20260902225024 | 78 | 0.0 | 0.0 | 0.00 | 0.00 | 0.00 | 89 | 1019.9 | |
| 20260902224019 | 78 | 0.0 | 0.0 | 0.00 | 0.00 | 0.00 | 89 | 1019.8 | |
| 20260902223035 | 78 | 0.0 | 0.0 | 0.00 | 0.00 | 0.00 | 89 | 1019.8 | |
| 20260902222030 | 78 | 0.0 | 0.0 | 0.00 | 0.00 | 0.00 | 88 | 1019.8 | |
| 20260902221026 | 78 | 0.0 | 0.0 | 0.00 | 0.00 | 0.00 | 88 | 1019.8 | |
| 20260902215016 | 79 | 0.0 | 0.0 | 0.00 | 0.00 | 0.00 | 88 | 1019.8 | |
| 20260902214032 | 79 | 87 | 0.0 | 0.9 | 0.00 | 0.00 | 0.00 | 88 | 1019.7 |
| 20260902213047 | 79 | 78 | 0.0 | 0.9 | 0.00 | 0.00 | 0.00 | 88 | 1019.7 |
| 20260902212022 | 79 | 109 | 0.0 | 1.7 | 0.00 | 0.00 | 0.00 | 88 | 1019.8 |
| 20260902211018 | 79 | 138 | 0.9 | 1.7 | 0.00 | 0.00 | 0.00 | 88 | 1019.8 |
| 20260902210033 | 79 | 93 | 0.0 | 0.9 | 0.00 | 0.00 | 0.00 | 87 | 1019.8 |
| 20260902205029 | 79 | 109 | 0.9 | 1.7 | 0.00 | 0.00 | 0.00 | 87 | 1019.6 |
| 20260902204024 | 78 | 104 | 0.0 | 1.7 | 0.00 | 0.00 | 0.00 | 88 | 1019.5 |
| 20260902203019 | 78 | 83 | 0.0 | 0.9 | 0.00 | 0.00 | 0.00 | 88 | 1019.5 |
| 20260902202035 | 78 | 0.0 | 0.0 | 0.00 | 0.00 | 0.00 | 88 | 1019.4 | |
| 20260902201030 | 78 | 84 | 0.9 | 1.7 | 0.00 | 0.00 | 0.00 | 88 | 1019.3 |
| 20260902200045 | 78 | 85 | 1.7 | 2.6 | 0.00 | 0.00 | 0.00 | 88 | 1019.1 |
| 20260902195021 | 78 | 86 | 1.7 | 2.6 | 0.00 | 0.00 | 0.00 | 87 | 1018.9 |
| 20260902194016 | 79 | 92 | 1.7 | 2.6 | 0.00 | 0.00 | 0.00 | 87 | 1018.7 |
| 20260902193031 | 79 | 92 | 1.7 | 3.5 | 0.00 | 0.00 | 0.00 | 86 | 1018.6 |
| 20260902192026 | 79 | 89 | 0.9 | 2.6 | 0.00 | 0.00 | 0.00 | 86 | 1018.4 |
| 20260902191022 | 79 | 56 | 0.9 | 2.6 | 0.00 | 0.00 | 0.00 | 85 | 1018.3 |
| 20260902190017 | 79 | 68 | 0.9 | 3.5 | 0.00 | 0.00 | 0.00 | 85 | 1017.9 |
| 20260902185033 | 79 | 81 | 1.7 | 5.2 | 0.00 | 0.00 | 0.00 | 85 | 1018.1 |
| 20260902184028 | 79 | 85 | 2.6 | 5.2 | 0.00 | 0.00 | 0.00 | 85 | 1018.0 |
| 20260902183023 | 80 | 94 | 3.5 | 6.1 | 0.00 | 0.00 | 0.00 | 85 | 1017.9 |
| 20260902182018 | 80 | 82 | 1.7 | 6.1 | 0.00 | 0.00 | 0.00 | 84 | 1018.0 |
| 20260902181033 | 80 | 88 | 2.6 | 6.1 | 0.00 | 0.00 | 0.00 | 83 | 1018.1 |
| 20260902180029 | 80 | 97 | 3.5 | 7.8 | 0.00 | 0.00 | 0.00 | 82 | 1018.0 |
| 20260902175044 | 80 | 89 | 3.5 | 8.7 | 0.00 | 0.00 | 0.00 | 80 | 1018.0 |
| 20260902174019 | 81 | 94 | 3.5 | 8.7 | 0.00 | 0.00 | 0.00 | 78 | 1018.1 |
| 20260902173054 | 81 | 116 | 3.5 | 7.8 | 0.00 | 0.00 | 0.00 | 78 | 1017.8 |
| 20260902172029 | 82 | 99 | 3.5 | 8.7 | 0.00 | 0.00 | 0.00 | 78 | 1018.0 |
| 20260902171024 | 82 | 108 | 4.3 | 8.7 | 0.00 | 0.00 | 0.00 | 77 | 1017.8 |
| 20260902170040 | 82 | 118 | 4.3 | 8.7 | 0.00 | 0.00 | 0.00 | 77 | 1017.9 |
| 20260902165035 | 82 | 113 | 4.3 | 8.7 | 0.00 | 0.00 | 0.00 | 76 | 1017.8 |
| 20260902164030 | 82 | 103 | 5.2 | 8.7 | 0.00 | 0.00 | 0.00 | 76 | 1017.9 |
| 20260902163026 | 82 | 91 | 3.5 | 8.7 | 0.00 | 0.00 | 0.00 | 76 | 1017.8 |
| 20260902162021 | 83 | 92 | 5.2 | 8.7 | 0.00 | 0.00 | 0.00 | 74 | 1017.8 |
| 20260902161018 | 82 | 109 | 5.2 | 8.7 | 0.00 | 0.00 | 0.00 | 76 | 1017.8 |
| 20260902160032 | 82 | 99 | 5.2 | 7.8 | 0.00 | 0.00 | 0.00 | 76 | 1017.8 |
| 20260902155027 | 82 | 100 | 4.3 | 9.6 | 0.00 | 0.00 | 0.00 | 76 | 1017.8 |
| 20260902154022 | 82 | 127 | 7.0 | 12.2 | 0.00 | 0.00 | 0.00 | 76 | 1017.9 |
| 20260902153018 | 82 | 118 | 5.2 | 11.3 | 0.00 | 0.00 | 0.00 | 76 | 1017.9 |
| 20260902152033 | 82 | 111 | 5.2 | 9.6 | 0.00 | 0.00 | 0.00 | 76 | 1018.0 |
| 20260902151028 | 82 | 99 | 6.1 | 11.3 | 0.00 | 0.00 | 0.00 | 76 | 1018.0 |
| 20260902150024 | 82 | 95 | 5.2 | 13.0 | 0.00 | 0.00 | 0.00 | 76 | 1018.0 |
| 20260902145019 | 82 | 108 | 6.1 | 13.9 | 0.00 | 0.00 | 0.00 | 75 | 1018.1 |
| 20260902144034 | 83 | 103 | 7.0 | 13.0 | 0.00 | 0.00 | 0.00 | 75 | 1018.3 |
| 20260902143030 | 83 | 123 | 6.1 | 13.0 | 0.00 | 0.00 | 0.00 | 74 | 1018.4 |
| 20260902142025 | 83 | 118 | 6.1 | 13.0 | 0.00 | 0.00 | 0.00 | 73 | 1018.3 |
| 20260902141020 | 82 | 118 | 7.0 | 13.9 | 0.00 | 0.00 | 0.00 | 74 | 1018.4 |
| 20260902140016 | 83 | 105 | 6.1 | 11.3 | 0.00 | 0.00 | 0.00 | 73 | 1018.6 |
| 20260902135032 | 82 | 122 | 7.0 | 12.2 | 0.00 | 0.00 | 0.00 | 75 | 1018.5 |
| 20260902134027 | 82 | 126 | 7.8 | 13.0 | 0.00 | 0.00 | 0.00 | 75 | 1018.5 |
| 20260902133023 | 83 | 96 | 6.1 | 12.2 | 0.00 | 0.00 | 0.00 | 75 | 1018.5 |
| 20260902132018 | 83 | 114 | 6.1 | 14.8 | 0.00 | 0.00 | 0.00 | 75 | 1018.5 |
| 20260902131033 | 82 | 118 | 7.0 | 13.0 | 0.00 | 0.00 | 0.00 | 75 | 1018.6 |
| 20260902130028 | 83 | 111 | 4.3 | 8.7 | 0.00 | 0.00 | 0.00 | 73 | 1018.8 |
| 20260902125044 | 83 | 119 | 6.1 | 12.2 | 0.00 | 0.00 | 0.00 | 73 | 1018.8 |
| 20260902124018 | 83 | 126 | 6.1 | 12.2 | 0.00 | 0.00 | 0.00 | 73 | 1018.7 |
| 20260902123033 | 83 | 120 | 7.0 | 11.3 | 0.00 | 0.00 | 0.00 | 72 | 1018.8 |
| 20260902122028 | 83 | 105 | 5.2 | 11.3 | 0.00 | 0.00 | 0.00 | 72 | 1019.0 |
| 20260902121044 | 84 | 110 | 5.2 | 8.7 | 0.00 | 0.00 | 0.00 | 69 | 1018.9 |
| 20260902120019 | 83 | 110 | 3.5 | 9.6 | 0.00 | 0.00 | 0.00 | 70 | 1018.9 |
| 20260902115034 | 83 | 113 | 1.7 | 7.0 | 0.00 | 0.00 | 0.00 | 70 | 1019.0 |
| 20260902114050 | 83 | 127 | 4.3 | 11.3 | 0.00 | 0.00 | 0.00 | 71 | 1019.2 |
| 20260902113025 | 83 | 156 | 4.3 | 8.7 | 0.00 | 0.00 | 0.00 | 72 | 1019.2 |
| 20260902112020 | 83 | 112 | 2.6 | 9.6 | 0.00 | 0.00 | 0.00 | 71 | 1019.3 |
| 20260902111016 | 83 | 137 | 5.2 | 9.6 | 0.00 | 0.00 | 0.00 | 72 | 1019.2 |
| 20260902110031 | 82 | 95 | 3.5 | 7.0 | 0.00 | 0.00 | 0.00 | 73 | 1019.4 |
| 20260902105027 | 82 | 98 | 4.3 | 7.8 | 0.00 | 0.00 | 0.00 | 73 | 1019.3 |
| 20260902104022 | 81 | 109 | 4.3 | 7.8 | 0.00 | 0.00 | 0.00 | 75 | 1019.3 |
| 20260902103037 | 81 | 101 | 2.6 | 8.7 | 0.00 | 0.00 | 0.00 | 75 | 1019.5 |
| 20260902102032 | 81 | 114 | 2.6 | 7.0 | 0.00 | 0.00 | 0.00 | 75 | 1019.5 |
| 20260902101027 | 82 | 114 | 4.3 | 9.6 | 0.00 | 0.00 | 0.00 | 74 | 1019.5 |
| 20260902100043 | 81 | 105 | 6.1 | 11.3 | 0.00 | 0.00 | 0.00 | 75 | 1019.5 |
| 20260902095018 | 81 | 113 | 5.2 | 8.7 | 0.00 | 0.00 | 0.00 | 74 | 1019.4 |
| 20260902094033 | 81 | 121 | 4.3 | 8.7 | 0.00 | 0.00 | 0.00 | 73 | 1019.4 |
| 20260902093028 | 81 | 113 | 4.3 | 11.3 | 0.00 | 0.00 | 0.00 | 72 | 1019.3 |
| 20260902092024 | 80 | 119 | 6.1 | 9.6 | 0.00 | 0.00 | 0.00 | 73 | 1019.4 |
| 20260902091019 | 81 | 128 | 3.5 | 7.8 | 0.00 | 0.00 | 0.00 | 71 | 1019.2 |
| 20260902090035 | 80 | 89 | 2.6 | 6.1 | 0.00 | 0.00 | 0.00 | 73 | 1019.1 |
| 20260902085030 | 82 | 96 | 1.7 | 5.2 | 0.00 | 0.00 | 0.00 | 69 | 1019.0 |
| 20260902084025 | 80 | 95 | 0.9 | 3.5 | 0.00 | 0.00 | 0.00 | 71 | 1018.7 |
| 20260902083021 | 80 | 98 | 1.7 | 3.5 | 0.00 | 0.00 | 0.00 | 71 | 1018.6 |
| 20260902082036 | 81 | 119 | 1.7 | 2.6 | 0.00 | 0.00 | 0.00 | 68 | 1018.6 |
| 20260902081031 | 79 | 111 | 0.9 | 2.6 | 0.00 | 0.00 | 0.00 | 70 | 1018.5 |
| 20260902080047 | 79 | 111 | 0.9 | 1.7 | 0.00 | 0.00 | 0.00 | 71 | 1018.4 |
| 20260902075041 | 79 | 97 | 1.7 | 2.6 | 0.00 | 0.00 | 0.00 | 71 | 1018.4 |